| time (UTC) | temp C | wind direction | speed KPH | gust KPH | rain 1hr cm | rain 24hr cm | rain mn cm | humidity % | barometer mb |
| 20260503212401 | 12 | 205 | 3.2 | 8.0 | 0.00 | 0.00 | 0.00 | 92 | 982.7 |
| 20260503211900 | 12 | 207 | 3.2 | 6.4 | 0.00 | 0.00 | 0.00 | 92 | 982.8 |
| 20260503211359 | 12 | 205 | 3.2 | 6.4 | 0.00 | 0.00 | 0.00 | 91 | 982.8 |
| 20260503210859 | 12 | 192 | 3.2 | 6.4 | 0.00 | 0.00 | 0.00 | 91 | 982.7 |
| 20260503210359 | 12 | 201 | 4.8 | 6.4 | 0.00 | 0.00 | 0.00 | 91 | 982.7 |
| 20260503205853 | 12 | 205 | 4.8 | 6.4 | 0.00 | 0.00 | 0.00 | 91 | 982.7 |
| 20260503205353 | 12 | 194 | 3.2 | 8.0 | 0.00 | 0.00 | 0.00 | 91 | 982.7 |
| 20260503204353 | 12 | 226 | 4.8 | 8.0 | 0.00 | 0.00 | 0.00 | 91 | 982.8 |
| 20260503203854 | 12 | 191 | 4.8 | 8.0 | 0.00 | 0.00 | 0.00 | 90 | 982.8 |
| 20260503203356 | 12 | 233 | 6.4 | 8.0 | 0.00 | 0.00 | 0.00 | 90 | 982.8 |
| 20260503202852 | 12 | 197 | 4.8 | 8.0 | 0.00 | 0.00 | 0.00 | 90 | 982.9 |
| 20260503202353 | 12 | 201 | 4.8 | 9.7 | 0.00 | 0.00 | 0.00 | 90 | 982.8 |
| 20260503201853 | 12 | 211 | 4.8 | 9.7 | 0.00 | 0.00 | 0.00 | 89 | 982.9 |
| 20260503201354 | 12 | 213 | 4.8 | 8.0 | 0.00 | 0.00 | 0.00 | 89 | 982.8 |
| 20260503200854 | 12 | 220 | 4.8 | 8.0 | 0.00 | 0.00 | 0.00 | 89 | 982.8 |
| 20260503200352 | 12 | 207 | 4.8 | 8.0 | 0.00 | 0.00 | 0.00 | 89 | 982.7 |
| 20260503195354 | 13 | 200 | 6.4 | 11.3 | 0.00 | 0.00 | 0.00 | 88 | 982.6 |
| 20260503194854 | 13 | 203 | 8.0 | 12.9 | 0.00 | 0.00 | 0.00 | 88 | 982.6 |
| 20260503194354 | 13 | 231 | 8.0 | 12.9 | 0.00 | 0.00 | 0.00 | 88 | 982.7 |
| 20260503193848 | 13 | 196 | 8.0 | 14.5 | 0.00 | 0.00 | 0.00 | 87 | 982.6 |
| 20260503193348 | 13 | 211 | 8.0 | 14.5 | 0.00 | 0.00 | 0.00 | 87 | 982.5 |
| 20260503192848 | 13 | 216 | 8.0 | 14.5 | 0.00 | 0.00 | 0.00 | 87 | 982.4 |
| 20260503192351 | 13 | 251 | 8.0 | 14.5 | 0.00 | 0.00 | 0.00 | 86 | 982.4 |
| 20260503191348 | 13 | 245 | 8.0 | 16.1 | 0.00 | 0.00 | 0.00 | 85 | 982.2 |
| 20260503190848 | 13 | 214 | 8.0 | 16.1 | 0.00 | 0.00 | 0.00 | 85 | 982.1 |
| 20260503190348 | 13 | 226 | 6.4 | 12.9 | 0.00 | 0.00 | 0.00 | 84 | 982.1 |
| 20260503185848 | 13 | 208 | 6.4 | 12.9 | 0.00 | 0.00 | 0.00 | 84 | 982.1 |
| 20260503185350 | 14 | 235 | 8.0 | 14.5 | 0.00 | 0.00 | 0.00 | 83 | 982.0 |
| 20260503184849 | 14 | 217 | 8.0 | 14.5 | 0.00 | 0.00 | 0.00 | 82 | 981.8 |
| 20260503184351 | 14 | 231 | 8.0 | 14.5 | 0.00 | 0.00 | 0.00 | 82 | 981.9 |
| 20260503183849 | 14 | 210 | 8.0 | 14.5 | 0.00 | 0.00 | 0.00 | 81 | 981.9 |
| 20260503183350 | 15 | 213 | 8.0 | 14.5 | 0.00 | 0.00 | 0.00 | 80 | 981.8 |
| 20260503182851 | 15 | 226 | 8.0 | 16.1 | 0.00 | 0.00 | 0.00 | 80 | 981.7 |
| 20260503182350 | 15 | 216 | 8.0 | 16.1 | 0.00 | 0.00 | 0.00 | 79 | 981.7 |
| 20260503181844 | 15 | 201 | 8.0 | 14.5 | 0.00 | 0.00 | 0.00 | 79 | 981.7 |
| 20260503180844 | 16 | 225 | 8.0 | 12.9 | 0.00 | 0.00 | 0.00 | 77 | 981.7 |
| 20260503180347 | 16 | 225 | 8.0 | 16.1 | 0.00 | 0.00 | 0.00 | 77 | 981.7 |
| 20260503175844 | 16 | 229 | 8.0 | 16.1 | 0.00 | 0.00 | 0.00 | 76 | 981.8 |
| 20260503175344 | 16 | 221 | 9.7 | 16.1 | 0.00 | 0.00 | 0.00 | 76 | 981.7 |
| 20260503174847 | 17 | 218 | 8.0 | 16.1 | 0.00 | 0.00 | 0.00 | 75 | 981.7 |
| 20260503174345 | 17 | 214 | 6.4 | 12.9 | 0.00 | 0.00 | 0.00 | 74 | 981.6 |
| 20260503173844 | 17 | 219 | 6.4 | 11.3 | 0.00 | 0.00 | 0.00 | 73 | 981.5 |
| 20260503173345 | 17 | 214 | 6.4 | 11.3 | 0.00 | 0.00 | 0.00 | 73 | 981.7 |
| 20260503172341 | 18 | 237 | 6.4 | 11.3 | 0.00 | 0.00 | 0.00 | 72 | 981.4 |
| 20260503171843 | 18 | 191 | 6.4 | 11.3 | 0.00 | 0.00 | 0.00 | 71 | 981.4 |
| 20260503171341 | 18 | 247 | 6.4 | 12.9 | 0.00 | 0.00 | 0.00 | 70 | 981.4 |
| 20260503170840 | 18 | 273 | 8.0 | 12.9 | 0.00 | 0.00 | 0.00 | 70 | 981.3 |
| 20260503170339 | 18 | 186 | 9.7 | 17.7 | 0.00 | 0.00 | 0.00 | 69 | 981.5 |
| 20260503150822 | 21 | 275 | 4.8 | 14.5 | 0.00 | 0.00 | 0.00 | 61 | 981.6 |
| 20260503150325 | 21 | 285 | 3.2 | 14.5 | 0.00 | 0.00 | 0.00 | 61 | 981.6 |
| 20260503140314 | 20 | 274 | 8.0 | 20.9 | 0.00 | 0.00 | 0.00 | 62 | 982.6 |
| 20260503131305 | 20 | 304 | 9.7 | 19.3 | 0.00 | 0.00 | 0.00 | 59 | 982.9 |
| 20260503130805 | 20 | 279 | 9.7 | 19.3 | 0.00 | 0.00 | 0.00 | 59 | 983.0 |
| 20260503130306 | 20 | 243 | 8.0 | 19.3 | 0.00 | 0.00 | 0.00 | 59 | 983.0 |
| 20260503110253 | 18 | 34 | 4.8 | 8.0 | 0.00 | 0.00 | 0.00 | 69 | 983.2 |
| 20260503100243 | 18 | 51 | 6.4 | 8.0 | 0.00 | 0.00 | 0.00 | 75 | 983.7 |
| 20260503081205 | 15 | 64 | 4.8 | 8.0 | 0.00 | 0.00 | 0.00 | 85 | 984.0 |
| 20260503080701 | 15 | 38 | 4.8 | 6.4 | 0.00 | 0.00 | 0.00 | 85 | 984.0 |
| 20260503080202 | 15 | 74 | 4.8 | 6.4 | 0.00 | 0.00 | 0.00 | 85 | 984.0 |
| 20260503072656 | 14 | 58 | 3.2 | 6.4 | 0.00 | 0.00 | 0.00 | 86 | 984.2 |
| 20260503072156 | 14 | 59 | 3.2 | 6.4 | 0.00 | 0.00 | 0.00 | 87 | 984.2 |
| 20260503071656 | 13 | 78 | 3.2 | 4.8 | 0.00 | 0.00 | 0.00 | 88 | 984.1 |
| 20260503070152 | 13 | 44 | 3.2 | 4.8 | 0.00 | 0.00 | 0.00 | 87 | 984.3 |
| 20260503054629 | 12 | 23 | 1.6 | 3.2 | 0.00 | 0.00 | 0.00 | 90 | 984.2 |
| 20260503054127 | 12 | 57 | 1.6 | 3.2 | 0.00 | 0.00 | 0.00 | 91 | 984.2 |
| 20260503053621 | 12 | 25 | 1.6 | 3.2 | 0.00 | 0.00 | 0.00 | 90 | 984.2 |
| 20260503053117 | 12 | 355 | 0.0 | 1.6 | 0.00 | 0.00 | 0.00 | 91 | 984.2 |
| 20260503052621 | 12 | 345 | 0.0 | 3.2 | 0.00 | 0.00 | 0.00 | 91 | 984.2 |
| 20260503052116 | 12 | 25 | 1.6 | 3.2 | 0.00 | 0.00 | 0.00 | 92 | 984.1 |
| 20260503051614 | 11 | 0 | 1.6 | 3.2 | 0.00 | 0.00 | 0.00 | 92 | 984.1 |
| 20260503050609 | 11 | 265 | 1.6 | 3.2 | 0.00 | 0.00 | 0.00 | 92 | 984.0 |
| 20260503050109 | 11 | 335 | 1.6 | 3.2 | 0.00 | 0.00 | 0.00 | 93 | 984.1 |
| 20260503045609 | 11 | 299 | 0.0 | 3.2 | 0.00 | 0.00 | 0.00 | 93 | 984.0 |
| 20260503045110 | 10 | 231 | 0.0 | 0.0 | 0.00 | 0.00 | 0.00 | 92 | 984.0 |
| 20260503044609 | 10 | 237 | 0.0 | 0.0 | 0.00 | 0.00 | 0.00 | 92 | 983.9 |
| 20260503044109 | 10 | 237 | 0.0 | 0.0 | 0.00 | 0.00 | 0.00 | 92 | 984.0 |
| 20260503043609 | 9 | 237 | 0.0 | 0.0 | 0.00 | 0.00 | 0.00 | 91 | 984.0 |
| 20260503043105 | 9 | 218 | 0.0 | 0.0 | 0.00 | 0.00 | 0.00 | 93 | 983.9 |
| 20260503042604 | 9 | 207 | 0.0 | 0.0 | 0.00 | 0.00 | 0.00 | 92 | 983.9 |
| 20260503042102 | 9 | 207 | 0.0 | 0.0 | 0.00 | 0.00 | 0.00 | 92 | 983.9 |
| 20260503041603 | 9 | 221 | 0.0 | 1.6 | 0.00 | 0.00 | 0.00 | 93 | 983.8 |
| 20260503040600 | 9 | 212 | 0.0 | 1.6 | 0.00 | 0.00 | 0.00 | 92 | 983.8 |
| 20260503040100 | 9 | 212 | 0.0 | 3.2 | 0.00 | 0.00 | 0.00 | 92 | 983.8 |
| 20260503035558 | 9 | 212 | 1.6 | 3.2 | 0.00 | 0.00 | 0.00 | 92 | 983.9 |
| 20260503035057 | 9 | 240 | 0.0 | 3.2 | 0.00 | 0.00 | 0.00 | 92 | 983.9 |
| 20260503034553 | 9 | 229 | 1.6 | 3.2 | 0.00 | 0.00 | 0.00 | 90 | 983.8 |
| 20260503033554 | 10 | 239 | 1.6 | 3.2 | 0.00 | 0.00 | 0.00 | 92 | 983.9 |
| 20260503033054 | 10 | 243 | 1.6 | 3.2 | 0.00 | 0.00 | 0.00 | 92 | 983.8 |
| 20260503032555 | 10 | 213 | 1.6 | 3.2 | 0.00 | 0.00 | 0.00 | 92 | 983.9 |
| 20260503032107 | 10 | 123 | 1.6 | 1.6 | 0.00 | 0.00 | 0.00 | 93 | 983.9 |
| 20260503031553 | 10 | 166 | 1.6 | 3.2 | 0.00 | 0.00 | 0.00 | 93 | 983.8 |
| 20260503031047 | 10 | 210 | 3.2 | 4.8 | 0.00 | 0.00 | 0.00 | 93 | 983.8 |
| 20260503030544 | 9 | 207 | 3.2 | 4.8 | 0.00 | 0.00 | 0.00 | 92 | 983.9 |
| 20260503030056 | 9 | 209 | 3.2 | 4.8 | 0.00 | 0.00 | 0.00 | 90 | 983.8 |
| 20260503025543 | 9 | 226 | 3.2 | 4.8 | 0.00 | 0.00 | 0.00 | 90 | 983.9 |
| 20260503025045 | 9 | 160 | 1.6 | 4.8 | 0.00 | 0.00 | 0.00 | 90 | 983.9 |
| 20260503024540 | 9 | 214 | 0.0 | 1.6 | 0.00 | 0.00 | 0.00 | 89 | 984.0 |
| 20260503024040 | 9 | 218 | 0.0 | 1.6 | 0.00 | 0.00 | 0.00 | 90 | 983.9 |
| 20260503023539 | 9 | 218 | 1.6 | 3.2 | 0.00 | 0.00 | 0.00 | 89 | 983.8 |
| 20260503023039 | 10 | 218 | 0.0 | 3.2 | 0.00 | 0.00 | 0.00 | 89 | 983.9 |
| 20260503022539 | 10 | 181 | 1.6 | 4.8 | 0.00 | 0.00 | 0.00 | 90 | 983.8 |
| 20260503022035 | 10 | 233 | 3.2 | 4.8 | 0.00 | 0.00 | 0.00 | 91 | 984.0 |
| 20260503021535 | 10 | 229 | 1.6 | 3.2 | 0.00 | 0.00 | 0.00 | 91 | 983.9 |
| 20260503021039 | 10 | 213 | 3.2 | 4.8 | 0.00 | 0.00 | 0.00 | 91 | 983.9 |
| 20260503020535 | 10 | 224 | 3.2 | 4.8 | 0.00 | 0.00 | 0.00 | 91 | 983.8 |
| 20260503020034 | 10 | 206 | 1.6 | 3.2 | 0.00 | 0.00 | 0.00 | 90 | 983.9 |
| 20260503015537 | 10 | 208 | 1.6 | 3.2 | 0.00 | 0.00 | 0.00 | 89 | 983.9 |
| 20260503014537 | 10 | 193 | 0.0 | 3.2 | 0.00 | 0.00 | 0.00 | 89 | 983.9 |
| 20260503014033 | 10 | 220 | 0.0 | 0.0 | 0.00 | 0.00 | 0.00 | 89 | 983.9 |
| 20260503013532 | 10 | 210 | 0.0 | 1.6 | 0.00 | 0.00 | 0.00 | 89 | 983.8 |
| 20260503013032 | 11 | 152 | 0.0 | 3.2 | 0.00 | 0.00 | 0.00 | 89 | 984.0 |
| 20260503012031 | 11 | 227 | 1.6 | 4.8 | 0.00 | 0.00 | 0.00 | 89 | 984.0 |
| 20260503011532 | 11 | 215 | 1.6 | 4.8 | 0.00 | 0.00 | 0.00 | 90 | 984.0 |
| 20260503011033 | 11 | 214 | 1.6 | 4.8 | 0.00 | 0.00 | 0.00 | 89 | 984.1 |
| 20260503010532 | 11 | 207 | 1.6 | 4.8 | 0.00 | 0.00 | 0.00 | 89 | 984.1 |
| 20260503010033 | 11 | 238 | 0.0 | 3.2 | 0.00 | 0.00 | 0.00 | 89 | 984.2 |
| 20260503005532 | 11 | 207 | 1.6 | 3.2 | 0.00 | 0.00 | 0.00 | 89 | 984.2 |
| 20260503005030 | 11 | 236 | 1.6 | 3.2 | 0.00 | 0.00 | 0.00 | 89 | 984.3 |
| 20260503004531 | 11 | 241 | 1.6 | 4.8 | 0.00 | 0.00 | 0.00 | 88 | 984.3 |
| 20260503004033 | 11 | 213 | 1.6 | 4.8 | 0.00 | 0.00 | 0.00 | 88 | 984.3 |
| 20260503003534 | 11 | 217 | 1.6 | 4.8 | 0.00 | 0.00 | 0.00 | 89 | 984.3 |
| 20260503003030 | 11 | 240 | 1.6 | 4.8 | 0.00 | 0.00 | 0.00 | 88 | 984.4 |
| 20260503002532 | 11 | 229 | 1.6 | 4.8 | 0.00 | 0.00 | 0.00 | 88 | 984.4 |
| 20260503002026 | 11 | 215 | 1.6 | 3.2 | 0.00 | 0.00 | 0.00 | 87 | 984.4 |
| 20260503001527 | 11 | 210 | 1.6 | 4.8 | 0.00 | 0.00 | 0.00 | 87 | 984.6 |
| 20260503001028 | 11 | 184 | 3.2 | 4.8 | 0.00 | 0.00 | 0.00 | 87 | 984.6 |
| 20260503000527 | 11 | 227 | 3.2 | 3.2 | 0.00 | 0.00 | 0.00 | 87 | 984.6 |
| 20260503000027 | 11 | 215 | 1.6 | 3.2 | 0.00 | 0.00 | 0.00 | 87 | 984.6 |
| 20260502235028 | 11 | 226 | 0.0 | 3.2 | 0.00 | 0.00 | 0.00 | 86 | 984.7 |
| 20260502234528 | 11 | 213 | 0.0 | 4.8 | 0.00 | 0.00 | 0.00 | 86 | 984.6 |
| 20260502234022 | 11 | 224 | 1.6 | 4.8 | 0.00 | 0.00 | 0.00 | 86 | 984.7 |
| 20260502233520 | 11 | 210 | 1.6 | 4.8 | 0.00 | 0.00 | 0.00 | 85 | 984.6 |
| 20260502233020 | 11 | 217 | 1.6 | 6.4 | 0.00 | 0.00 | 0.00 | 85 | 984.8 |
| 20260502232519 | 11 | 179 | 3.2 | 6.4 | 0.00 | 0.00 | 0.00 | 85 | 984.8 |
| 20260502232022 | 11 | 235 | 4.8 | 9.7 | 0.00 | 0.00 | 0.00 | 85 | 984.8 |
| 20260502231518 | 11 | 193 | 4.8 | 9.7 | 0.00 | 0.00 | 0.00 | 84 | 984.8 |
| 20260502231018 | 11 | 245 | 4.8 | 9.7 | 0.00 | 0.00 | 0.00 | 84 | 984.7 |
| 20260502230533 | 11 | 219 | 4.8 | 9.7 | 0.00 | 0.00 | 0.00 | 83 | 984.8 |
| 20260502230021 | 11 | 191 | 6.4 | 9.7 | 0.00 | 0.00 | 0.00 | 83 | 984.8 |
| 20260502225518 | 11 | 206 | 6.4 | 9.7 | 0.00 | 0.00 | 0.00 | 83 | 984.9 |
| 20260502225018 | 11 | 203 | 6.4 | 9.7 | 0.00 | 0.00 | 0.00 | 82 | 984.9 |
| 20260502224020 | 11 | 212 | 4.8 | 9.7 | 0.00 | 0.00 | 0.00 | 81 | 984.9 |
| 20260502223515 | 12 | 239 | 4.8 | 9.7 | 0.00 | 0.00 | 0.00 | 81 | 984.9 |
| 20260502223013 | 12 | 244 | 4.8 | 12.9 | 0.00 | 0.00 | 0.00 | 80 | 984.8 |
| 20260502222514 | 12 | 212 | 6.4 | 12.9 | 0.00 | 0.00 | 0.00 | 80 | 984.8 |
| 20260502222018 | 12 | 240 | 6.4 | 11.3 | 0.00 | 0.00 | 0.00 | 79 | 984.8 |
| 20260502221515 | 12 | 208 | 6.4 | 11.3 | 0.00 | 0.00 | 0.00 | 79 | 984.8 |
| 20260502221015 | 12 | 210 | 8.0 | 11.3 | 0.00 | 0.00 | 0.00 | 79 | 984.8 |
| 20260502220012 | 12 | 209 | 6.4 | 12.9 | 0.00 | 0.00 | 0.00 | 78 | 984.7 |
| 20260502215512 | 12 | 218 | 8.0 | 12.9 | 0.00 | 0.00 | 0.00 | 77 | 984.8 |
| 20260502215007 | 12 | 204 | 8.0 | 12.9 | 0.00 | 0.00 | 0.00 | 77 | 984.9 |
| 20260502214009 | 12 | 216 | 8.0 | 12.9 | 0.00 | 0.00 | 0.00 | 77 | 984.8 |
| 20260502213507 | 12 | 212 | 9.7 | 12.9 | 0.00 | 0.00 | 0.00 | 77 | 984.9 |
| 20260502213009 | 12 | 208 | 9.7 | 11.3 | 0.00 | 0.00 | 0.00 | 77 | 984.8 |
| 20260502212510 | 12 | 205 | 6.4 | 11.3 | 0.00 | 0.00 | 0.00 | 77 | 984.8 |